Location: Le Cros
(43.8667°N, 3.3667°E)
Time: 05:35:29
(UTC+00:00)

Daily predictions for brighter satellites

Satellite Brightness Start Highest point End
(mag) Time Altitude Azimuth Time Altitude Azimuth Time Altitude Azimuth
SL-16 R/B 4.2 00:53:22 28° NNE 00:53:22 28° NNE 00:56:22 10° N
CZ-2D R/B 4.4 01:06:57 10° NNE 01:08:34 20° NNE 01:08:34 20° NNE
ATLAS 3B R/B 4.5 01:19:23 21° E 01:19:23 21° E 01:22:50 10° ENE
ADEOS II 3.6 01:52:57 10° NNE 01:56:26 33° ENE 01:56:26 33° ENE
CENTAUR R/B 3.5 01:59:00 37° E 01:59:00 37° E 02:04:24 10° NE
Cosmos 2369 Rocket 3.2 02:07:32 42° ENE 02:07:32 42° ENE 02:11:51 10° NE
Lacrosse 5 4.0 02:08:52 20° N 02:10:02 21° NNE 02:13:53 10° ENE
Resurs 1-4 Rocket 3.8 02:07:47 10° N 02:10:11 26° N 02:10:11 26° N
USA 238 DEB 3.8 02:21:37 62° NNW 02:21:37 62° NNW 02:27:56 10° NNE
USA 238 3.8 02:21:42 63° NNW 02:21:42 63° NNW 02:28:03 10° NNE
Atlas Centaur 2 4.3 02:29:29 18° SE 02:29:29 18° SE 02:32:04 10° SE
Cosmos 2278 Rocket 4.4 02:32:51 14° NNW 02:32:51 14° NNW 02:35:01 10° N
SL-16 R/B 4.5 02:38:28 15° NW 02:38:28 15° NW 02:39:40 10° NW
ARIANE 5 R/B 3.1 02:33:09 10° NNE 02:36:58 51° N 02:36:58 51° N
SL-4 R/B 4.4 02:41:22 16° E 02:41:22 16° E 02:42:18 10° E
Cosmos 1943 Rocket 2.3 02:49:36 65° NNW 02:49:36 65° NNW 02:54:34 10° NNE
CZ-2D R/B 3.9 02:47:37 10° N 02:49:54 20° NNW 02:49:54 20° NNW
Nadezhda 4 Rocket 3.8 02:52:12 78° SW 02:52:35 83° W 02:58:45 10° N
NOSS 3-3 (A) 4.5 02:46:51 10° NW 02:54:17 59° WSW 03:02:24 10° SSE
NOSS 3-3 (C) 4.5 02:46:57 10° NW 02:54:24 59° WSW 03:02:30 10° SSE
Cosmos 2344 3.5 02:54:20 55° W 02:55:50 66° NW 03:04:06 10° NE
Cosmos 1782 4.3 03:01:20 30° N 03:01:20 30° N 03:03:25 10° N
Unknown 4.4 03:01:48 48° NE 03:01:48 48° NE 03:04:56 10° NE
ATLAS 5 CENTAUR R/B 4.3 03:00:55 10° NNW 03:01:49 10° NNW 03:02:45 10° N
Unknown 4.4 03:03:22 50° NNE 03:03:22 50° NNE 03:06:34 10° NE
Unknown 4.3 03:04:59 51° NNE 03:04:59 51° NNE 03:08:15 10° NE
NOSS 3-2 (A) 4.0 03:04:27 41° NW 03:05:03 42° NW 03:11:20 10° NNE
Unknown 4.3 03:06:36 52° NNE 03:06:36 52° NNE 03:09:56 10° NE
ATLAS 3B R/B 2.5 03:06:40 58° WSW 03:07:57 75° NW 03:14:35 10° NE
Lacrosse 5 rocket 3.3 03:11:37 21° SSE 03:11:37 21° SSE 03:13:12 10° SE
NOSS 3-2 (C) 3.6 03:08:07 52° WNW 03:08:51 55° NW 03:15:23 10° NNE
Unknown 4.2 03:09:48 53° NNE 03:09:48 53° NNE 03:13:15 10° NE
Unknown 4.2 03:11:27 53° NNE 03:11:27 53° NNE 03:14:56 10° NE
Cosmos 1400 Rocket 3.2 03:11:55 60° ENE 03:11:55 60° ENE 03:15:21 10° NNE
Unknown 4.1 03:12:58 54° N 03:12:58 54° N 03:16:33 10° NE
Unknown 4.1 03:14:32 55° N 03:14:32 55° N 03:18:10 10° NE
Unknown 4.3 03:16:03 45° N 03:16:03 45° N 03:19:33 10° NE
Unknown 4.1 03:16:26 54° N 03:16:26 54° N 03:20:09 10° NE
Unknown 4.0 03:17:37 57° N 03:17:37 57° N 03:21:23 10° NE
Spot 2 4.4 03:13:13 10° NNE 03:17:47 64° ESE 03:18:57 45° SSE
Cosmos 2263 4.1 03:17:42 59° WSW 03:18:27 66° WNW 03:24:03 10° NNE
Aureole 2 Rocket 4.4 03:19:49 20° E 03:19:49 20° E 03:21:29 10° NE
Unknown 3.9 03:20:47 56° NNW 03:20:47 56° NNW 03:24:40 10° NE
Unknown 3.9 03:22:24 55° NNW 03:22:24 55° NNW 03:26:21 10° NE
IDEFIX/ARIANE 42P 3.2 03:17:54 10° NNE 03:23:05 55° E 03:27:33 14° S
Unknown 4.0 03:24:10 51° NNW 03:24:10 51° NNW 03:28:11 10° NE
Unknown 4.1 03:25:26 48° NNW 03:25:26 48° NNW 03:29:24 10° NE
Unknown 3.9 03:25:35 53° NNW 03:25:36 53° NNW 03:29:41 10° NE
H-2A R/B 3.6 03:22:23 10° NNE 03:25:58 37° E 03:28:28 17° SSE
Cosmos 1862 Rocket 3.9 03:24:47 30° SSE 03:26:52 65° E 03:31:19 10° NNE
Unknown 4.0 03:27:10 51° NNW 03:27:15 51° NNW 03:31:19 10° NE
Iridium 4 Rocket 3.0 03:26:11 47° S 03:27:27 88° E 03:31:44 10° N
USA 81 4.4 03:23:44 13° S 03:28:28 66° E 03:33:44 10° N
Meteor 1-5 Rocket 4.4 03:23:02 10° N 03:28:29 70° ENE 03:34:06 10° SSE
Cosmos 2084 Rocket 4.3 03:24:50 10° NNW 03:29:09 51° NE 03:33:24 10° SE
Unknown 4.0 03:30:23 49° NW 03:30:36 49° NNW 03:34:39 10° NE
Cosmos 2026 Rocket 4.0 03:26:46 19° S 03:31:29 89° ESE 03:37:54 10° N
Unknown 4.0 03:31:59 47° NW 03:32:16 48° NNW 03:36:19 10° NE
Unknown 4.1 03:33:35 46° NW 03:33:57 47° NNW 03:37:58 10° NE
Unknown 4.1 03:35:11 44° NW 03:35:37 46° NNW 03:39:38 10° NE
CZ-2C R/B 3.8 03:32:36 10° N 03:35:23 32° NW 03:35:23 32° NW
Cosmos 1536 4.1 03:33:18 10° N 03:37:06 41° ENE 03:40:52 10° SSE
Timation 2 Rocket 3.9 03:31:19 10° NNW 03:37:23 84° ENE 03:43:22 10° SSE
ADEOS II 3.1 03:33:02 10° N 03:37:22 28° WNW 03:37:22 28° WNW
Cosmos 1346 Rocket 3.9 03:33:46 10° N 03:37:45 47° ENE 03:41:42 10° SSE
Unknown 4.2 03:38:23 41° NW 03:38:58 44° NNW 03:42:57 10° NE
Unknown 4.4 03:40:15 37° NW 03:40:58 40° NNW 03:44:54 10° NE
Unknown 4.4 03:41:48 36° NW 03:42:34 40° NNW 03:46:31 10° NE
Unknown 4.3 03:41:58 37° NW 03:42:43 41° NNW 03:46:41 10° NE
Meteor 2-9 4.5 03:37:20 10° NNW 03:42:45 78° W 03:48:05 10° S
Cosmos 1656 Rocket 3.7 03:41:58 35° SW 03:44:24 68° WNW 03:50:03 10° NNE
Unknown 4.3 03:44:45 36° WNW 03:45:38 41° NNW 03:49:35 10° NE
CENTAUR R/B 3.0 03:46:12 31° W 03:48:46 46° NW 03:55:37 10° NNE
Unknown 4.4 03:47:57 33° WNW 03:48:59 39° NNW 03:52:54 10° NE
MSX 4.2 03:44:31 10° NNE 03:50:15 65° ESE 03:55:56 10° S
Cosmos 2369 Rocket 3.2 03:49:20 27° WNW 03:50:39 29° NW 03:55:36 10° N
Unknown 4.5 03:49:33 32° WNW 03:50:39 39° NNW 03:54:34 10° NE
CZ-2C R/B 3.7 03:46:35 10° NNE 03:51:16 42° E 03:56:02 10° S
Unknown 4.5 03:51:09 31° WNW 03:52:19 38° NNW 03:56:14 10° NE
Cosmos 1655 Rocket 4.3 03:46:58 10° S 03:53:07 67° E 03:59:21 10° NNE
Lacrosse 5 2.5 03:49:00 10° NW 03:53:58 54° NE 03:58:55 10° ESE
Cosmos 1538 Rocket 4.2 03:52:06 11° S 03:57:04 72° ESE 04:02:13 10° NNE
Cosmos 44 3.8 03:55:43 32° W 03:57:25 44° NW 04:02:00 10° NNE
Cosmos 1908 Rocket 3.9 03:53:07 10° N 03:57:27 66° E 04:01:45 10° SSE
PSLV R/B 3.9 03:53:24 10° S 03:57:29 59° W 04:01:34 10° NNW
CZ-4B R/B 4.5 03:53:59 10° NNE 03:58:16 40° E 04:02:29 10° SSE
Cosmos 1833 4.4 03:54:36 10° NW 03:59:53 43° WSW 04:05:08 10° S
S3M 4.2 03:53:59 10° N 04:00:11 74° E 04:06:25 10° SSE
Cosmos 1500 3.0 03:57:19 10° NNW 04:01:03 71° W 04:04:47 10° S
PSLV R/B 3.6 03:59:56 10° N 04:04:13 56° WNW 04:07:00 21° SW
Cosmos 1733 Rocket 3.5 04:02:09 10° NNW 04:06:18 38° W 04:10:07 12° SSW
SeaSat 1 2.4 04:05:05 10° NNE 04:10:01 74° WNW 04:14:09 15° SW
Atlas Centaur 2 4.1 04:12:06 16° SW 04:15:04 20° SSW 04:20:24 10° SSE
Meteor 1-27 Rocket 3.8 04:10:14 10° SSW 04:16:03 63° WNW 04:21:48 10° N
ARIANE 5 R/B 4.4 04:14:29 10° NNW 04:16:35 13° WNW 04:17:18 12° WNW
SL-4 R/B 2.0 04:17:01 25° W 04:18:36 42° SW 04:22:04 10° SSE
ADEOS 4.0 04:16:10 10° N 04:21:03 42° WNW 04:25:28 12° SW
COSMOS 2441 4.3 04:18:24 10° N 04:23:16 72° WNW 04:28:08 10° SSW
CZ-4B R/B 3.8 04:21:59 10° NNE 04:25:41 75° ESE 04:29:18 10° S
Cosmos 1812 3.4 04:23:31 17° SW 04:25:57 34° WNW 04:29:30 10° N
ATLAS CENTAUR R/B 4.1 04:24:20 10° N 04:27:41 20° NE 04:30:51 10° E
Cosmos 1743 4.2 04:25:00 10° N 04:28:43 41° ENE 04:32:24 10° SSE
PAYLOAD A 3.7 04:24:01 10° N 04:28:46 70° WNW 04:33:24 10° SSW
Cosmos 1315 Rocket 3.4 04:27:31 12° SW 04:31:05 37° WNW 04:34:58 10° N
Meteor 1-11 Rocket 4.1 04:26:25 10° NNW 04:31:35 39° W 04:36:38 10° SSW
Cosmos 1943 Rocket 4.0 04:31:09 10° WNW 04:33:48 14° NW 04:36:39 10° N
BREEZE-M DEB (TANK) 3.2 04:29:35 12° W 04:38:19 69° N 04:41:27 10° E
Cosmos 2266 Rocket 3.9 04:32:34 10° S 04:38:40 85° W 04:44:44 10° N
Cosmos 1782 Rocket 3.5 04:35:55 10° NNW 04:40:19 76° W 04:44:42 10° S
Shenzhou-11 Module 4.3 04:38:49 10° S 04:40:32 15° SSE 04:42:16 10° ESE
USA 215 3.3 04:34:21 10° NE 04:40:56 84° SE 04:47:29 10° SW
SKYMED 2 4.5 04:36:51 10° SSE 04:41:05 54° ENE 04:45:20 10° N
Unknown 3.9 04:45:45 10° NW 04:48:29 39° NNE 04:51:13 10° E
ALOS 4.2 04:44:51 10° NNE 04:49:06 34° E 04:53:19 10° SSE
Meteor PRIRODA 3.6 04:48:51 10° N 04:52:32 75° WNW 04:56:13 10° SSW
Cosmos 1703 Rocket 4.0 04:48:30 10° SSW 04:52:43 42° WNW 04:56:55 10° N
Aureole 2 Rocket 3.9 04:52:24 11° W 04:53:31 13° WNW 04:54:48 10° NNW
Cosmos 2292 Rocket 3.9 04:48:43 10° S 04:54:01 79° E 04:57:59 10° N
PSLV R/B 3.8 04:51:42 10° N 04:55:44 79° WNW 04:59:38 10° SSW
Cosmos 1666 3.1 04:52:13 10° NNW 04:55:46 39° W 04:59:17 10° SSW
Sich 1 Rocket 3.6 04:51:57 10° NNW 04:56:22 64° W 05:00:48 10° S
Meteor 1-31 Rocket 3.2 04:53:44 10° N 04:57:28 43° WNW 05:01:08 10° SW
BREEZE-M DEB (TANK) 3.3 04:55:36 10° W 04:59:15 33° NNW 05:01:27 10° NE
Cosmos 1340 4.1 04:57:02 10° NW 04:59:43 19° W 05:02:23 10° SW
ATLAS 3B R/B 4.0 04:54:42 10° W 04:59:45 22° NNW 05:04:49 10° NNE
Okean 1 3.2 04:56:41 10° SSW 05:00:37 75° W 05:04:36 10° N
Cosmos 2221 Rocket 3.6 04:56:17 10° S 05:00:42 89° ESE 05:05:09 10° N
Cosmos 2112 Rocket 4.3 04:55:47 10° SSW 05:01:02 77° ESE 05:06:17 10° NNE
H-2A R/B 3.9 04:58:40 10° NNW 05:01:12 17° WNW 05:03:44 10° WSW
IDEFIX/ARIANE 42P 3.9 04:58:21 10° NNW 05:02:17 22° WNW 05:06:13 10° WSW
Cosmos 1975 3.0 05:02:02 10° N 05:06:07 82° E 05:10:11 10° S
BREEZE-M DEB (TANK) 3.9 05:06:18 10° SW 05:14:00 41° SSE 05:16:54 10° E
